ビショア彗星

297P/Beshore (2008)

English version
Home page
Updated on March 2, 2014

---------------------------------------------------------------------

・ プロフィール

符号 297P/2008 J2
発見日 2008年5月6日
発見光度 13.8等
発見者 E. Beshore (Mt. Lemmon)

・ 写真集

・ 軌道要素

Epoch 2008 Apr. 4.0 TT = JDT 2454560.5
T 2008 Mar. 20.98945 TT                                 MPC
q   2.4102956            (2000.0)            P               Q
n   0.15181919     Peri.  131.85146     -0.62897281     +0.75714810
a   3.4800456      Node    98.29851     -0.75561523     -0.54200595
e   0.3073954      Incl.   10.26931     -0.18286289     -0.36463174
P   6.49
From 455 observations 2008 May 6-2014 Feb. 28, mean residual 0".5.

・ 星図

・ 光度変化

        m1 =  16   + 5 logΔ +  10 log r           [  ,46]  (              〜2008年 5月 5日)
        m1 = -32.5 + 5 logΔ + 100 log r(t + 200)  [46,  ]  (2008年 5月 5日〜              )

---------------------------------------------------------------------

軌道要素はM.P.E.C. 2014-D59に掲載されたものです。
星図はステラナビゲータ Ver.8 (アストロアーツ) で作成したものです。
光度グラフはComet for Windowsで作成したものです。

---------------------------------------------------------------------

Copyright(C) Seiichi Yoshida (comet@aerith.net). All rights reserved.